Temperature
15 15 15 15 15 15 15 15 15 15 15 15 15 15 15 15 15 15 15 15 15 15 15 15 15 15 15 15 15 15 15 15 15 15 15 15 15 16 16 16 16 16 16
15 15 15 15 15 14 14 14 14 14 14 14 14 14 14 14 14 14 14 15 15 15 15 15 15 15 15 15 15 15 15 15 15 15 15 15 15 15 15 15 15 15 16
14 15 15 14 14 14 14 14 14 14 14 14 14 14 14 14 14 14 14 14 14 14 15 15 15 14 14 15 15 15 15 15 15 15 15 15 15 15 15 15 15 15 15
14 14 14 14 14 14 14 14 14 14 14 14 14 14 14 14 14 14 14 14 14 14 14 14 14 14 14 14 14 14 15 15 15 15 15 15 15 15 15 15 15 15 15
14 14 14 14 14 14 14 14 14 14 14 14 14 13 13 13 13 13 13 13 13 13 14 14 14 14 14 14 14 14 14 14 14 14 14 14 14 14 14 14 15 15 15
14 14 14 14 14 13 13 13 13 13 13 13 13 13 13 13 13 13 13 13 13 13 13 13 13 14 14 14 14 14 14 14 14 14 14 14 14 14 14 14 14 14 14
14 13 13 13 13 13 13 13 13 13 13 13 13 13 13 13 13 13 13 13 13 13 13 13 13 13 13 13 14 14 14 14 14 14 14 14 14 14 14 14 14 14 14
13 13 13 13 13 13 13 13 13 13 13 13 13 14 14 14 13 13 13 13 13 12 13 13 13 13 13 13 13 13 13 13 13 13 14 14 14 14 14 14 14 14 14
13 13 13 13 13 13 13 13 12 12 12 13 13 13 14 14 13 13 13 12 12 12 12 12 12 12 12 12 12 13 13 13 13 13 13 13 13 14 14 13 13 13 14
13 13 13 12 12 12 12 12 12 12 12 12 12 12 12 13 13 13 13 13 12 12 12 12 12 12 12 12 12 13 13 13 13 13 13 13 13 13 13 13 13 13 13
13 13 12 12 12 12 12 12 12 12 12 12 12 12 12 12 13 13 13 12 12 12 12 12 12 12 12 12 12 12 13 13 13 13 13 13 13 13 13 13 13 13 13
12 12 12 12 12 12 12 12 12 12 12 12 12 12 12 12 12 12 13 13 12 12 12 12 12 12 12 12 12 12 12 12 12 12 12 12 13 12 13 12 13 13 13
12 12 12 12 12 12 12 12 12 12 12 11 11 11 11 12 12 12 12 12 12 12 12 12 12 12 12 12 12 12 12 12 12 12 12 12 12 12 12 12 12 12 12
12 12 12 11 11 11 11 11 11 11 11 11 11 11 11 11 11 11 12 12 12 12 12 12 11 11 11 11 11 11 11 12 12 12 12 12 12 12 12 12 12 12 12
12 12 11 11 11 11 11 11 11 11 11 11 11 11 11 11 11 11 11 11 11 12 12 12 11 11 11 11 11 11 11 11 11 11 11 12 12 12 12 12 12 12 12
12 11 11 11 11 11 11 11 11 11 11 11 11 11 11 11 11 11 11 11 11 11 12 11 11 11 11 11 11 11 11 11 11 11 11 11 11 11 11 11 11 12 12
12 11 11 11 11 11 11 11 10 10 10 10 10 10 10 10 11 11 11 11 10 11 11 11 10 10 10 10 11 11 11 11 11 11 11 11 11 11 11 11 11 11 11
11 11 11 10 10 10 10 10 10 10 10 10 10 10 10 10 10 10 10 10 10 10 10 10 10 10 10 10 10 10 10 10 11 11 11 11 11 11 11 11 11 11 11
11 11 10 10 10 10 10 10 10 10 10 10 10 10 10 10 10 10 10 10 10 10 10 10 10 10 10 10 10 10 10 10 10 10 11 11 11 11 11 11 11 11 11
11 10 10 10 10 10 10 9 9 9 9 9 9 9 9 9 9 9 9 9 10 10 10 10 10 10 10 10 10 10 10 10 10 10 10 10 10 10 10 10 10 11 11
10 10 10 10 10 10 9 9 9 9 9 9 9 9 9 9 9 9 9 9 9 9 9 9 9 9 9 9 9 9 9 9 10 10 10 10 10 10 10 10 10 10 10
10 10 10 10 10 10 9 10 9 9 9 9 9 9 9 9 9 9 9 9 9 9 9 9 9 9 9 9 9 9 9 9 9 9 9 9 10 10 10 10 10 10 10
10 9 9 9 9 9 9 9 9 9 9 8 8 8 8 9 9 8 9 9 9 9 9 9 9 9 9 9 9 9 9 8 9 9 9 9 9 9 9 10 10 10 10
9 9 9 9 9 9 9 9 9 9 8 8 8 8 8 8 8 8 8 8 8 8 8 8 8 8 8 8 8 8 8 8 8 8 9 8 9 9 9 9 10 10 10
9 9 9 9 9 9 9 9 9 8 8 8 8 8 8 8 8 8 8 8 8 8 8 8 8 8 8 8 8 8 8 8 8 8 8 8 8 8 8 9 9 9 9
9 9 9 9 8 8 9 9 8 8 8 8 8 8 8 8 8 8 7 7 7 8 8 8 8 8 8 8 8 8 8 7 7 8 8 8 8 8 8 8 8 8 8
Wind_Speed
2 3 3 3 4 4 3 3 3 4 4 4 4 5 5 5 5 5 6 9 9 9 8 7 8 8 7 7 6 6 7 7 6 6 5 5 4 4 4 4 3 3 4
3 2 3 3 4 4 3 3 3 3 3 3 4 4 5 4 4 5 5 6 8 8 8 8 8 8 7 7 7 6 6 6 6 5 5 4 4 4 4 3 2 3 5
3 3 2 3 3 3 3 3 3 3 2 2 3 4 4 4 4 4 5 4 5 7 8 8 8 8 7 7 7 7 6 6 5 4 4 4 4 3 4 4 4 5 5
3 3 2 2 2 2 2 2 2 2 2 2 2 2 2 3 3 3 3 4 4 4 6 8 8 8 7 7 7 6 6 5 5 5 4 4 5 5 5 5 5 5 5
2 2 2 2 2 2 2 2 2 2 2 2 2 1 1 2 2 2 3 4 4 3 4 5 6 7 7 8 8 7 6 5 5 5 5 5 5 5 5 5 4 4 5
1 2 2 1 2 1 2 2 2 2 2 2 1 1 1 1 1 2 3 3 4 4 3 3 3 5 6 8 8 8 7 6 6 6 5 5 4 5 5 5 4 4 5
1 1 1 1 1 1 1 2 1 2 2 1 0 1 1 1 1 2 2 2 3 3 3 3 3 3 3 5 7 7 7 6 6 6 5 5 5 4 4 4 4 5 5
1 1 1 1 1 1 1 1 1 1 1 1 1 1 1 2 1 1 1 2 2 2 2 3 3 3 3 3 6 7 7 6 6 5 5 5 5 5 5 4 5 5 5
1 0 1 1 0 1 1 1 1 0 0 1 2 2 1 1 1 1 1 1 2 2 2 2 3 3 3 3 4 6 6 6 5 5 5 5 5 5 5 5 5 5 5
1 1 1 0 0 0 1 1 1 0 1 0 0 2 2 2 2 1 0 1 2 2 2 2 2 2 2 3 4 6 6 5 5 4 4 4 4 4 4 4 4 4 4
2 1 1 1 1 1 1 1 1 1 1 1 1 1 1 2 3 3 2 2 1 1 2 2 1 2 2 2 2 5 5 5 4 4 4 4 3 3 4 3 3 4 4
2 2 2 2 2 1 1 2 2 2 2 1 2 1 1 2 2 2 3 3 2 1 1 1 1 1 2 2 2 4 3 4 3 3 4 4 4 3 3 3 3 3 3
2 2 2 2 2 2 2 2 2 2 2 2 2 2 2 2 2 3 3 3 3 2 1 1 0 1 1 2 3 3 2 2 3 3 3 3 3 2 2 1 2 2 2
2 2 3 3 2 2 2 2 2 2 2 3 3 2 2 2 2 3 3 3 3 3 2 1 1 0 1 2 3 3 1 3 2 2 2 2 1 1 1 1 1 1 1
2 3 3 3 2 2 2 2 2 2 2 2 2 3 2 2 2 3 3 4 4 4 3 1 1 1 0 1 2 2 1 2 1 1 1 1 1 0 1 1 1 1 1
3 3 3 3 3 3 3 3 3 2 2 2 2 3 3 3 2 2 3 4 4 4 4 3 2 2 1 1 1 2 2 1 2 2 1 1 1 1 1 1 1 1 0
4 4 4 3 3 3 3 3 3 3 4 3 3 3 3 3 3 3 3 3 4 4 5 4 3 2 3 3 2 3 3 3 2 3 3 2 2 2 3 3 3 2 2
5 5 4 4 4 4 4 4 4 4 4 4 4 3 4 3 4 3 3 4 4 4 5 5 4 3 4 3 3 4 4 3 3 3 3 3 3 3 3 5 5 4 3
6 6 5 5 5 5 5 5 5 5 5 5 5 5 5 4 4 4 4 4 4 4 4 5 4 3 3 3 4 4 4 3 4 3 4 5 4 5 5 6 6 6 5
6 6 6 6 6 6 5 6 6 6 5 5 5 5 5 5 5 5 4 5 5 5 5 4 4 4 3 3 4 4 3 3 3 3 3 4 5 6 8 7 6 6 6
7 6 7 7 6 6 6 6 6 6 6 6 6 5 5 5 5 5 5 5 5 4 4 4 4 4 4 3 4 3 4 3 3 3 3 4 4 5 6 8 8 7 7
7 7 7 7 7 6 5 5 6 6 7 7 6 6 6 6 6 5 5 6 5 5 5 5 5 6 6 5 3 4 4 3 4 3 4 4 4 4 4 5 5 7 7
7 7 7 7 8 7 6 6 7 7 7 7 7 6 5 5 5 5 6 7 7 7 7 7 7 7 6 5 4 5 5 6 5 3 4 5 4 5 4 4 5 6 7
6 6 7 7 7 7 5 6 7 9 8 8 7 7 7 6 5 5 6 6 6 6 7 7 7 7 6 5 5 6 6 6 5 3 3 4 4 5 4 4 6 7 7
5 6 6 7 7 7 4 5 6 7 7 8 7 7 7 6 2 4 6 6 7 5 5 6 7 6 5 4 4 4 4 4 5 4 3 4 4 4 4 5 4 6 7
4 4 4 5 6 6 3 4 6 6 7 7 6 6 4 5 3 4 6 6 7 6 5 5 5 6 6 5 6 6 5 5 5 4 3 3 4 3 3 3 3 3 5
Wind_Direction
73 75 71 66 63 63 66 55 56 59 52 50 49 47 50 51 49 51 62 56 44 42 44 47 49 48 50 52 53 53 51 50 53 56 61 65 65 68 65 62 75 99 104
84 80 75 67 61 54 51 51 54 58 56 56 48 48 44 43 45 52 51 65 57 43 40 43 45 44 45 45 46 50 53 48 48 53 54 55 61 66 61 55 77 112 112
88 86 77 77 68 58 52 47 49 50 54 56 52 48 46 37 30 43 46 40 57 64 49 41 39 40 40 41 44 48 47 43 45 55 52 50 56 62 57 64 88 107 109
89 83 76 71 68 61 53 50 38 40 45 44 38 40 42 45 32 35 45 46 35 37 65 49 38 37 37 41 42 44 45 44 44 52 51 52 55 56 64 67 84 99 106
94 98 79 62 64 61 50 51 47 30 40 41 34 25 22 37 38 34 38 36 35 28 50 73 60 46 40 39 39 41 43 45 45 51 55 61 61 57 60 67 82 101 110
98 107 112 93 75 73 55 55 69 53 40 30 31 29 31 57 54 36 26 28 21 28 34 41 63 73 57 45 40 40 43 44 48 56 58 61 64 63 61 62 75 98 106
116 109 130 110 81 76 51 49 72 83 67 26 47 84 135 132 63 54 19 13 36 29 30 45 32 31 64 69 46 37 37 38 43 49 53 55 59 67 69 68 75 89 99
125 141 170 156 143 121 80 54 74 56 71 10 333 288 228 166 101 55 15 3 19 37 33 35 44 45 34 38 58 42 33 36 40 44 53 56 58 65 69 77 79 94 99
104 140 163 182 172 182 119 74 95 86 30 39 359 327 310 320 333 133 25 7 16 16 33 34 28 37 36 31 39 53 36 33 36 42 52 59 61 69 72 74 78 84 93
149 205 211 226 207 185 158 174 122 108 287 4 22 340 336 331 292 282 223 16 18 14 17 22 21 22 30 40 49 48 39 30 37 42 49 61 67 73 75 72 75 77 88
182 201 212 214 225 233 241 235 227 241 263 285 303 302 298 289 289 287 291 313 336 5 17 7 19 30 33 43 30 46 39 31 33 37 38 50 64 74 78 78 73 71 72
190 203 218 214 209 226 245 249 246 241 257 267 276 278 278 284 294 289 284 294 312 342 355 3 352 28 23 29 42 42 40 35 33 31 34 40 48 68 79 81 70 67 68
199 208 212 224 220 231 243 244 245 247 249 255 264 276 280 287 290 285 285 297 305 305 300 252 52 79 51 32 39 25 67 60 44 30 32 32 39 59 79 98 80 68 62
213 212 210 217 222 227 238 232 244 244 247 251 264 268 267 277 282 278 284 289 286 280 261 252 207 125 65 38 37 342 63 80 54 31 18 10 33 77 68 67 78 59 51
218 216 216 219 225 233 238 235 245 247 251 258 265 268 269 267 270 274 273 270 278 281 278 273 256 243 296 23 25 331 338 83 46 11 351 331 344 159 131 83 90 78 46
215 216 220 223 227 229 231 236 247 252 244 243 259 265 267 265 263 264 261 265 269 274 278 290 285 275 261 262 301 304 313 189 219 226 255 262 313 285 235 217 202 196 223
216 216 222 225 227 230 228 224 237 242 245 242 243 255 263 271 262 254 254 256 257 262 266 275 276 260 253 260 259 278 268 254 226 194 206 224 252 281 260 237 220 217 222
220 222 223 228 231 236 234 231 234 239 243 249 250 256 265 265 265 263 256 254 256 258 260 267 265 256 260 265 270 269 257 245 254 184 196 213 228 245 252 242 226 219 217
222 223 225 232 234 238 239 240 239 243 247 252 252 252 258 257 256 259 258 259 260 257 259 258 263 265 261 255 263 270 259 255 252 218 203 210 219 231 237 238 229 221 218
224 227 230 232 233 237 240 241 241 245 249 252 250 251 254 253 256 259 257 259 260 254 248 249 253 256 257 255 257 257 260 255 256 242 223 228 224 228 228 228 228 225 221
228 229 233 235 235 237 240 239 241 245 246 251 253 254 255 262 276 270 262 257 256 253 247 249 253 255 252 249 249 251 260 265 259 249 246 237 231 232 220 217 219 224 225
228 231 235 236 235 236 228 233 247 247 247 250 253 253 252 247 251 253 261 266 262 251 251 249 253 255 256 252 252 253 254 258 263 238 256 259 247 247 240 231 201 209 220
227 231 236 238 238 235 219 222 235 248 250 252 255 254 252 252 244 246 237 238 250 261 268 265 262 262 262 258 248 249 253 257 268 259 255 256 247 249 241 227 197 211 222
230 235 237 240 243 241 227 226 231 243 249 249 250 254 253 251 248 256 255 248 246 243 246 254 263 268 268 267 253 252 259 260 266 251 245 260 257 256 253 238 201 208 221
234 236 238 240 242 240 224 226 233 243 247 246 245 249 255 253 259 263 257 257 260 259 242 255 272 283 299 291 272 249 246 245 255 249 232 252 260 263 260 251 211 200 217
232 236 239 241 243 247 223 222 238 242 245 244 243 244 254 263 254 244 252 259 264 267 259 243 245 249 252 241 233 240 239 244 259 253 222 238 251 256 258 243 234 221 215
Height
1539 1539 1539 1538 1538 1538 1537 1537 1537 1537 1537 1536 1536 1536 1535 1534 1534 1533 1532 1531 1531 1530 1530 1529 1529 1528 1528 1527 1527 1526 1526 1525 1525 1524 1524 1523 1523 1523 1522 1521 1520 1521 1522
1539 1539 1539 1538 1538 1538 1538 1538 1538 1537 1537 1536 1536 1536 1535 1535 1534 1534 1533 1532 1531 1531 1530 1529 1529 1529 1528 1527 1527 1526 1526 1525 1525 1524 1524 1523 1523 1522 1521 1519 1517 1518 1521
1540 1540 1540 1539 1539 1538 1538 1538 1538 1537 1537 1537 1536 1536 1535 1535 1535 1534 1533 1532 1532 1531 1530 1530 1529 1529 1529 1528 1527 1527 1526 1526 1525 1524 1524 1524 1523 1522 1521 1518 1516 1517 1521
1540 1540 1540 1540 1539 1539 1538 1538 1538 1538 1537 1537 1537 1536 1536 1535 1535 1534 1533 1533 1532 1532 1530 1530 1529 1529 1529 1528 1528 1527 1527 1526 1525 1525 1524 1524 1523 1523 1522 1520 1519 1520 1522
1540 1540 1540 1539 1539 1539 1539 1538 1538 1538 1537 1537 1536 1536 1536 1535 1534 1534 1534 1533 1532 1531 1531 1530 1529 1529 1529 1528 1528 1527 1527 1526 1526 1525 1525 1524 1524 1524 1523 1523 1522 1523 1524
1540 1540 1539 1540 1539 1539 1538 1538 1537 1537 1537 1537 1536 1536 1535 1535 1534 1534 1533 1533 1532 1531 1531 1530 1530 1529 1529 1528 1528 1527 1527 1526 1526 1525 1525 1525 1525 1524 1524 1524 1524 1524 1525
1539 1539 1539 1539 1539 1539 1538 1538 1537 1537 1537 1537 1537 1536 1536 1535 1535 1534 1533 1533 1532 1531 1530 1530 1530 1529 1529 1528 1528 1527 1527 1526 1526 1526 1525 1525 1525 1525 1525 1525 1525 1525 1525
1538 1539 1539 1539 1538 1538 1537 1537 1536 1537 1536 1536 1537 1537 1536 1537 1535 1534 1533 1532 1532 1530 1530 1530 1529 1529 1528 1528 1527 1527 1526 1526 1526 1526 1525 1525 1525 1525 1525 1525 1526 1526 1526
1537 1538 1538 1538 1538 1538 1537 1537 1536 1536 1536 1536 1536 1537 1536 1535 1535 1535 1533 1532 1531 1530 1530 1529 1529 1528 1528 1528 1527 1526 1526 1526 1526 1525 1525 1525 1525 1525 1525 1525 1525 1526 1526
1536 1536 1537 1537 1537 1537 1536 1536 1536 1536 1536 1536 1536 1535 1536 1535 1535 1534 1534 1532 1531 1530 1530 1529 1528 1528 1527 1527 1526 1526 1526 1526 1525 1525 1525 1525 1525 1525 1525 1525 1525 1526 1526
1535 1535 1535 1535 1536 1536 1536 1535 1535 1535 1535 1535 1535 1535 1535 1534 1534 1534 1533 1532 1531 1530 1529 1528 1528 1527 1527 1526 1526 1525 1525 1524 1524 1525 1524 1524 1524 1524 1524 1524 1525 1525 1526
1533 1533 1533 1534 1534 1534 1534 1534 1534 1534 1534 1534 1534 1534 1534 1534 1533 1533 1532 1531 1530 1530 1528 1528 1527 1527 1526 1526 1525 1524 1524 1523 1523 1524 1523 1523 1523 1523 1524 1524 1524 1524 1525
1532 1532 1532 1532 1532 1532 1532 1532 1532 1532 1532 1532 1532 1533 1532 1532 1532 1532 1531 1530 1529 1529 1528 1527 1526 1526 1525 1525 1524 1523 1523 1523 1523 1523 1522 1522 1522 1522 1523 1523 1523 1523 1524
1530 1530 1530 1530 1530 1530 1530 1530 1531 1531 1531 1531 1531 1531 1530 1530 1530 1530 1530 1529 1528 1528 1527 1527 1526 1525 1524 1524 1523 1523 1522 1522 1522 1522 1522 1522 1522 1522 1522 1522 1522 1522 1523
1528 1528 1528 1528 1528 1528 1528 1528 1528 1529 1528 1528 1529 1529 1528 1528 1528 1527 1527 1527 1528 1526 1526 1525 1524 1523 1523 1522 1522 1522 1521 1521 1520 1521 1521 1521 1520 1521 1520 1520 1521 1521 1521
1526 1526 1526 1526 1526 1526 1526 1526 1526 1526 1526 1526 1526 1526 1526 1526 1525 1525 1525 1525 1525 1525 1524 1523 1522 1522 1521 1521 1520 1520 1520 1519 1519 1519 1519 1519 1519 1519 1518 1519 1519 1519 1520
1523 1523 1523 1523 1523 1523 1524 1523 1523 1523 1523 1523 1523 1523 1523 1523 1523 1523 1522 1522 1522 1522 1521 1521 1520 1519 1519 1519 1518 1518 1518 1517 1517 1517 1517 1517 1517 1517 1517 1517 1517 1518 1518
1520 1521 1521 1521 1521 1521 1521 1521 1521 1520 1521 1521 1520 1520 1520 1520 1520 1520 1520 1520 1519 1519 1519 1518 1517 1517 1516 1516 1516 1515 1515 1515 1515 1515 1514 1514 1514 1514 1514 1515 1515 1515 1516
1517 1517 1518 1518 1518 1518 1518 1518 1518 1518 1518 1518 1517 1517 1517 1517 1517 1517 1516 1516 1516 1516 1515 1515 1514 1514 1513 1513 1513 1513 1513 1513 1513 1512 1512 1512 1512 1512 1512 1512 1513 1513 1513
1514 1514 1514 1514 1515 1515 1515 1514 1515 1515 1515 1514 1514 1514 1513 1513 1513 1513 1513 1513 1513 1512 1512 1512 1512 1511 1511 1510 1510 1510 1510 1510 1510 1510 1510 1509 1509 1510 1510 1510 1510 1510 1510
1510 1510 1510 1511 1511 1511 1511 1511 1511 1511 1511 1511 1510 1510 1510 1509 1509 1509 1509 1509 1509 1509 1509 1509 1509 1508 1508 1507 1507 1507 1507 1507 1507 1507 1507 1507 1507 1507 1507 1507 1507 1507 1507
1505 1506 1506 1506 1507 1507 1507 1507 1507 1507 1507 1507 1507 1506 1506 1505 1504 1504 1504 1504 1505 1505 1505 1505 1505 1505 1505 1505 1504 1504 1504 1504 1504 1505 1504 1504 1504 1504 1504 1504 1504 1504 1504
1501 1502 1502 1502 1502 1502 1502 1502 1503 1503 1503 1503 1503 1503 1502 1501 1501 1501 1500 1501 1501 1501 1501 1502 1502 1501 1501 1501 1501 1501 1501 1501 1501 1500 1501 1500 1501 1501 1501 1501 1501 1501 1501
1497 1497 1497 1498 1498 1498 1498 1498 1498 1499 1499 1499 1499 1498 1498 1498 1497 1497 1497 1497 1497 1497 1497 1497 1497 1497 1498 1498 1498 1498 1498 1498 1498 1497 1497 1497 1497 1498 1497 1497 1497 1497 1497
1493 1493 1493 1493 1493 1493 1493 1493 1494 1494 1495 1495 1494 1494 1494 1494 1493 1493 1494 1494 1494 1493 1493 1492 1492 1493 1493 1493 1494 1494 1494 1494 1494 1494 1494 1494 1494 1494 1494 1493 1493 1493 1494
1489 1489 1489 1489 1489 1489 1489 1489 1489 1490 1490 1490 1490 1490 1489 1490 1489 1489 1490 1490 1489 1489 1489 1488 1488 1488 1489 1489 1490 1490 1491 1491 1491 1491 1491 1491 1491 1491 1491 1491 1490 1490 1490